Tracking 17140 objects as of 1-July-2015
HD Live streaming from Space Station

AVUM R/B

Track AVUM R/B now!
10-day predictions
AVUM R/B is classified as:


NORAD ID: 38086
Int'l Code: 2012-006K
Perigee: 258.9 km
Apogee: 809.5 km
Inclination: 69.5 °
Period: 95.2 minutes
Semi major axis: 6905 km
RCS: 4.0982 m2 (large)
Launch date: February 13, 2012
Source: European Space Agency (ESA)

Note: This is a ROCKET BODY
Your satellite tracking list
Your tracking list is empty





NASA's NSSDC Master Catalog

Two Line Element Set (TLE):
1 38086U 12006K   15181.76735641  .00033423  37537-5  22652-3 0  9994
2 38086 069.4824 125.8037 0398734 187.3554 235.0778 15.13003703179151

Source of the keplerian elements: AFSPC

N2YO: 262